[[{"header":{"parameterUnit":"m.s-1","parameterCategory":1,"la1":30.2991,"la2":30.254,"lo1":-89.0895,"lo2":-89.0444,"dy":0.0017,"dx":0.0017,"nx":28,"ny":28,"refTime":"2025-05-29T21:00:00:Z","depth":0,"parameterNumber":2,"parameterNumberName":"U-component_of_WINDS"},"data":[0,0,0,0,0,0,0,0,0,0,0,0,0,0,0,0,0,0,0,0,0,0,0,0,0,0,0,0,0,0,0,0,0,0,0,0,0,0,0,0,0,0,0,0,0,0,0,0,0,0,0,0,0,0,0,0,0,0,1.1052,1.1052,0,1.1107,1.1107,1.1108,1.1058,1.1056,1.1054,1.1052,1.1109,1.1113,1.1116,0,0,0,0,0,0,0,0,0,0,0,0,0,1.0904,1.0907,1.1052,1.1052,1.1053,1.1107,1.1107,1.1108,1.1058,1.1056,1.1053,1.1051,1.1108,1.1112,1.1116,0,0,0,0,0,0,0,0,0,0,0,0,0,1.0964,1.0908,1.1052,1.1035,1.1034,1.1106,1.1107,1.1108,1.1059,1.1056,1.1053,1.105,1.1107,1.1112,1.1117,1.121,0,0,1.1133,1.1135,0,0,0,0,0,0,0,0,1.0961,1.097,1.1036,1.1036,1.1035,1.1072,1.1076,1.1142,1.1059,1.1049,1.1052,1.1048,1.11,1.1105,1.1122,1.1212,1.1215,1.1133,1.1136,1.1138,1.114,0,0,0,0,0,0,0,1.0957,1.0967,1.1073,1.1037,1.1037,1.1024,1.103,1.1088,1.1091,1.105,1.1046,1.1054,1.1098,1.1117,1.1123,1.1216,1.1133,1.1137,1.1141,1.1143,1.1384,1.1388,0,0,0,0,0,0,1.0954,1.0964,1.1072,1.1075,1.099,1.1029,1.1035,1.1063,1.109,1.1091,1.1056,1.1051,1.111,1.1117,1.1125,1.1235,1.1138,1.1143,1.1146,1.1381,1.1385,1.1389,0,0,0,0,0,0,1.0951,1.0964,1.1069,1.1019,1.1031,1.1035,1.1067,1.1066,1.1085,1.1095,1.1095,1.1075,1.1108,1.1118,1.1189,1.1237,1.1145,1.115,1.1377,1.1382,1.1387,1.1457,0,0,0,0,0,0,1.0947,1.0964,1.0999,1.102,1.1034,1.1133,1.107,1.1069,1.1094,1.1087,1.1112,1.1114,1.1106,1.1181,1.1194,1.1242,1.1154,1.1373,1.1379,1.1385,1.145,1.1464,1.1475,0,0,0,0,0,1.0942,1.1017,1.1001,1.1014,1.1078,1.1135,1.1143,1.1133,1.1098,1.1133,1.1139,1.1113,1.1229,1.1189,1.1203,1.1253,1.137,1.1378,1.1385,1.1445,1.1461,1.1475,0,0,0,0,0,0,1.1002,1.1019,1.1002,1.1085,1.1109,1.1127,1.1171,1.1151,1.1186,1.1178,1.1165,1.1171,1.1246,1.1256,1.1211,1.1344,1.1294,1.1304,1.1335,1.135,1.1362,1.1358,1.1158,0,0,0,0,0,1.1024,1.1069,1.1082,1.1154,1.1167,1.1167,1.1192,1.1182,1.1206,1.1216,1.1228,1.1253,1.1295,1.1323,1.1362,1.1451,1.1456,1.1493,1.1505,1.1515,1.1525,1.1573,1.1589,1.1414,1.1413,1.1413,0,0,1.1072,1.1087,1.1116,1.1166,1.1184,1.1231,1.1176,1.1228,1.1263,1.1224,1.1292,1.1301,1.1328,1.1409,1.1445,1.142,1.1574,1.1525,1.1533,1.1537,1.1582,1.1599,1.1614,1.1419,1.1418,1.1417,0,0,1.1182,1.1198,1.126,1.1279,1.1305,1.1305,1.132,1.1341,1.1345,1.1413,1.1385,1.1426,1.1499,1.1519,1.1539,1.1657,1.1634,1.167,1.1735,1.1782,1.1796,1.1808,1.1851,1.1866,1.168,1.168,1.168,0,1.1238,1.1308,1.1295,1.1349,1.1372,1.1338,1.1401,1.142,1.1458,1.1475,1.1446,1.1537,1.1553,1.1638,1.1666,1.1684,1.17,1.1668,1.1795,1.1807,1.1818,1.1859,1.1875,1.1684,1.1684,1.1683,1.1683,0,1.1375,1.1424,1.147,1.1508,1.1536,1.1595,1.1591,1.1621,1.1608,1.1611,1.168,1.1698,1.174,1.1759,1.1748,1.1843,1.1827,1.1797,1.1746,1.184,1.1877,1.1893,1.169,1.1689,1.1688,1.1686,0,0,1.1525,1.1554,1.1572,1.1589,1.1616,1.1653,1.171,1.1751,1.1777,1.1805,1.1852,1.1914,1.1887,1.191,1.19,1.1941,1.2034,1.1906,1.1907,1.193,1.214,1.2163,1.2181,1.2018,1.2021,1.2023,1.2138,0,1.1637,1.1735,1.1725,1.1819,1.1863,1.1832,1.1881,1.1904,1.1907,1.1946,1.195,1.1995,1.1955,1.1969,1.2008,1.2014,1.2076,1.2006,1.2063,1.2065,1.2058,1.2201,1.2225,1.2332,1.2153,1.2155,1.2157,0,1.178,1.1813,1.1911,1.1931,1.195,1.1994,1.2031,1.2068,1.2093,1.2093,1.2118,1.2101,1.2158,1.2106,1.2184,1.2137,1.216,1.2166,1.217,1.2176,1.2117,1.221,1.2366,1.2382,1.218,1.2178,1.2176,0,1.188,1.1949,1.2016,1.2031,1.2057,1.2089,1.2101,1.2122,1.2147,1.218,1.2196,1.2234,1.2256,1.2286,1.228,1.2242,1.2361,1.2308,1.2363,1.2363,1.239,1.2388,1.2552,1.2404,1.2403,1.2403,1.2403,0,1.2007,1.2068,1.2062,1.2103,1.2171,1.2159,1.2226,1.2234,1.2254,1.2296,1.2271,1.2312,1.2302,1.2342,1.2338,1.2404,1.2414,1.2415,1.2414,1.2418,1.2418,1.2433,1.2426,1.2407,1.2406,1.2405,1.2405,0,1.213,1.2128,1.22,1.2218,1.2224,1.2273,1.2288,1.2328,1.2329,1.2384,1.2396,1.2399,1.2445,1.2442,1.2494,1.2491,1.2573,1.2562,1.2565,1.2563,1.2618,1.2613,1.2798,1.2821,1.2657,1.2659,1.266,0,1.2211,1.2258,1.228,1.2307,1.2321,1.2365,1.239,1.238,1.2408,1.2439,1.2475,1.2519,1.2553,1.2629,1.2636,1.2676,1.2666,1.2728,1.2672,1.2675,1.2668,1.2665,1.267,1.2739,1.2741,1.2742,1.2744,0,1.2355,1.2352,1.239,1.2428,1.2459,1.2488,1.2515,1.2538,1.253,1.2563,1.261,1.2637,1.269,1.2734,1.2772,1.2784,1.2763,1.2761,1.2776,1.2781,1.2781,1.2782,1.2596,1.2757,1.2756,1.2755,1.2754,1.2753,1.246,1.25,1.2522,1.2565,1.2584,1.261,1.2648,1.2654,1.2693,1.2735,1.2726,1.2779,1.2803,1.2851,1.2868,1.2909,1.2887,1.2908,1.2914,1.292,1.2926,1.2774,1.2916,1.2915,1.2915,1.2915,1.2914,0,1.2603,1.2616,1.2656,1.2694,1.2728,1.2704,1.2732,1.2762,1.2809,1.2832,1.2867,1.2921,1.2963,1.2974,1.3015,1.3046,1.3037,1.3057,1.3055,1.3058,1.2943,1.2927,1.3063,1.3063,1.3063,1.3063,1.3063,1.3063,1.2682,1.2748,1.2747,1.2823,1.2835,1.2887,1.2905,1.2928,1.2947,1.3008,1.3043,1.305,1.3068,1.311,1.3148,1.315,1.3166,1.319,1.3189,1.3081,1.3066,1.3052,1.3036,1.3194,1.3194,1.33,1.3301,1.3302]},{"header":{"parameterUnit":"m.s-1","parameterCategory":1,"la1":30.2991,"la2":30.254,"lo1":-89.0895,"lo2":-89.0444,"dy":0.0017,"dx":0.0017,"nx":28,"ny":28,"refTime":"2025-05-29T21:00:00:Z","depth":0,"parameterNumber":3,"parameterNumberName":"V-component_of_WINDS"},"data":[0,0,0,0,0,0,0,0,0,0,0,0,0,0,0,0,0,0,0,0,0,0,0,0,0,0,0,0,0,0,0,0,0,0,0,0,0,0,0,0,0,0,0,0,0,0,0,0,0,0,0,0,0,0,0,0,0,0,2.6631,2.6632,0,2.6725,2.6726,2.6727,2.6706,2.6704,2.6702,2.67,2.6794,2.6798,2.6802,0,0,0,0,0,0,0,0,0,0,0,0,0,2.6432,2.6436,2.6631,2.6632,2.6634,2.6724,2.6726,2.6727,2.6706,2.6704,2.6702,2.67,2.6793,2.6798,2.6803,0,0,0,0,0,0,0,0,0,0,0,0,0,2.6521,2.6437,2.6631,2.6634,2.6635,2.6724,2.6726,2.6727,2.6706,2.6704,2.6701,2.6698,2.6791,2.6797,2.6803,2.6894,0,0,2.6822,2.6825,0,0,0,0,0,0,0,0,2.6516,2.6529,2.6632,2.6634,2.6636,2.6701,2.669,2.6783,2.6707,2.6679,2.67,2.6697,2.6765,2.6773,2.6796,2.6899,2.6903,2.6823,2.6827,2.6829,2.6831,0,0,0,0,0,0,0,2.651,2.6525,2.6668,2.6634,2.6636,2.663,2.664,2.6707,2.6736,2.6681,2.668,2.6692,2.6765,2.6791,2.6798,2.6904,2.6823,2.6828,2.6832,2.6834,2.7084,2.7087,0,0,0,0,0,0,2.6503,2.652,2.6665,2.6671,2.6568,2.6636,2.6646,2.6682,2.6735,2.674,2.6694,2.669,2.6781,2.6791,2.6802,2.6911,2.6829,2.6835,2.6839,2.7082,2.7085,2.7088,0,0,0,0,0,0,2.6499,2.6516,2.6661,2.6595,2.6613,2.6642,2.6682,2.6686,2.6711,2.6744,2.6749,2.6714,2.678,2.6793,2.6871,2.6914,2.6838,2.6843,2.7078,2.7083,2.7087,2.713,0,0,0,0,0,0,2.6493,2.6515,2.655,2.6596,2.6617,2.673,2.6685,2.6689,2.6722,2.6718,2.6765,2.677,2.6778,2.6862,2.6877,2.6921,2.6848,2.7074,2.708,2.7085,2.7125,2.7136,2.7144,0,0,0,0,0,2.6486,2.6559,2.6552,2.657,2.6662,2.6733,2.6745,2.6753,2.6725,2.6761,2.6782,2.6769,2.6907,2.687,2.6887,2.6933,2.7072,2.7079,2.7085,2.7121,2.7133,2.7144,0,0,0,0,0,0,2.6517,2.6565,2.6558,2.6648,2.6687,2.6729,2.6774,2.6767,2.6813,2.6808,2.6816,2.6827,2.6906,2.6928,2.6886,2.7024,2.6985,2.6995,2.7007,2.7019,2.7028,2.7021,2.6853,0,0,0,0,0,2.6535,2.6589,2.6628,2.6703,2.6723,2.6745,2.6777,2.678,2.682,2.6836,2.6863,2.6902,2.6953,2.6988,2.7037,2.7128,2.7137,2.7168,2.7178,2.7186,2.7194,2.7242,2.7256,2.711,2.711,2.711,0,0,2.6571,2.6604,2.6638,2.671,2.674,2.6795,2.6759,2.6819,2.686,2.6845,2.692,2.6941,2.6985,2.707,2.7108,2.709,2.7237,2.7194,2.72,2.7204,2.725,2.7264,2.7276,2.7114,2.7113,2.7113,0,0,2.6665,2.6696,2.6762,2.6793,2.6839,2.6853,2.6869,2.6913,2.6926,2.7002,2.6992,2.704,2.713,2.7161,2.7188,2.7293,2.7282,2.731,2.736,2.7406,2.7418,2.7428,2.7464,2.7477,2.7318,2.7318,2.7318,0,2.6704,2.6787,2.6796,2.6857,2.6889,2.6878,2.6944,2.6973,2.7033,2.7055,2.7034,2.7145,2.7174,2.7265,2.7291,2.7314,2.7331,2.7304,2.7416,2.7426,2.7436,2.747,2.7484,2.7321,2.7321,2.732,2.732,0,2.6832,2.689,2.6937,2.6996,2.7033,2.7096,2.7113,2.7149,2.715,2.7166,2.7242,2.7277,2.7332,2.7355,2.7355,2.7446,2.7432,2.7414,2.7375,2.7452,2.7485,2.7498,2.7325,2.7324,2.7323,2.7323,0,0,2.6948,2.701,2.7027,2.7053,2.7103,2.7148,2.721,2.7265,2.7295,2.7337,2.7388,2.7464,2.7447,2.7478,2.7482,2.7523,2.7602,2.7499,2.75,2.7516,2.7702,2.7715,2.773,2.7596,2.7598,2.76,2.7698,0,2.7046,2.7156,2.7165,2.7263,2.7316,2.7306,2.736,2.7396,2.7413,2.7459,2.7477,2.7531,2.7504,2.7523,2.7564,2.7584,2.764,2.7577,2.7642,2.7644,2.763,2.7747,2.7762,2.7852,2.7711,2.7713,2.7715,0,2.7174,2.7219,2.7323,2.7365,2.7387,2.7435,2.7486,2.7531,2.7571,2.758,2.7615,2.7613,2.7676,2.7636,2.7721,2.7679,2.7706,2.772,2.7724,2.7729,2.7683,2.7754,2.7881,2.7894,2.7735,2.7733,2.7732,0,2.7246,2.7334,2.7406,2.7429,2.748,2.7514,2.7536,2.7574,2.7606,2.765,2.767,2.7721,2.7749,2.7788,2.7799,2.7769,2.7884,2.7845,2.7892,2.7892,2.7916,2.7914,2.8047,2.7936,2.7935,2.7935,2.7935,0,2.7353,2.7417,2.7439,2.7484,2.7554,2.7564,2.7633,2.7654,2.7687,2.7735,2.773,2.7775,2.7788,2.7835,2.7844,2.7913,2.7925,2.7934,2.7935,2.7933,2.7932,2.795,2.7944,2.7939,2.7938,2.7937,2.7937,0,2.7445,2.7464,2.7542,2.7584,2.7595,2.7645,2.768,2.7723,2.7739,2.7799,2.7814,2.7838,2.7893,2.7909,2.7975,2.7981,2.8061,2.8057,2.8047,2.8047,2.8093,2.8087,2.8241,2.8261,2.8138,2.8139,2.814,0,2.7512,2.756,2.7607,2.7639,2.7663,2.7714,2.7747,2.7758,2.7792,2.7841,2.7877,2.7931,2.7975,2.8063,2.8086,2.8136,2.8133,2.8183,2.814,2.8137,2.8132,2.8128,2.8132,2.8191,2.8192,2.8193,2.8194,0,2.7628,2.7634,2.7681,2.7732,2.7771,2.7811,2.785,2.7876,2.7893,2.7931,2.7987,2.8021,2.8088,2.8141,2.8192,2.8214,2.8207,2.8208,2.8221,2.8219,2.8211,2.8214,2.8068,2.8204,2.8203,2.8202,2.8202,2.8201,2.7708,2.775,2.7789,2.7842,2.7872,2.7908,2.795,2.7971,2.8018,2.8073,2.8077,2.8137,2.8175,2.8242,2.8267,2.8314,2.8299,2.8318,2.8323,2.8327,2.833,2.8204,2.8323,2.8323,2.8323,2.8323,2.8322,0,2.7822,2.7846,2.7895,2.7949,2.799,2.798,2.8022,2.8057,2.811,2.8147,2.819,2.8253,2.8305,2.8332,2.8383,2.8415,2.8413,2.8428,2.8425,2.843,2.8342,2.8324,2.8429,2.8429,2.8429,2.8429,2.8429,2.8429,2.7886,2.7956,2.7967,2.8052,2.8076,2.8135,2.8159,2.8192,2.8221,2.8292,2.8335,2.8353,2.8385,2.8438,2.8485,2.8491,2.8509,2.8526,2.8531,2.8447,2.8436,2.8426,2.841,2.8531,2.8531,2.8615,2.8616,2.8616]}]]